Flag for Eritrea Weather past 2 weeks in Teseney, Eritrea

Now
91 °F

Clear.


Feels Like: 91 °F
Forecast: 86 / 105 °F
Wind: 8 mph from Southwest

Location: Khartoum Airport

Current Time: May 29, 2015 at 1:48:17 AM

Latest Report: May 29, 2015 at 1:00 AM


Visibility: 10 mi

Pressure: 29.77 "Hg

Humidity: 34%

Dew point: 59 °F

Location of TeseneyLocation

Historic Weather in Teseney — Graph

°F

Teseney temperature yesterday

Maximum temperature yesterday: 104 °F (at 4:00 PM)
Minimum temperature yesterday: 84 °F (at 7:00 AM)
Average temperature yesterday: 94 °F

Past Weeks' High & Low Weather Summary

 TemperatureHumidityPressure
High113 °F (May 18, 5:00 PM)49% (May 28, 12:00 AM)29.95 "Hg (May 28, 12:00 AM)
Low82 °F (May 16, 8:00 AM)5% (May 18, 1:00 AM)29.68 "Hg (May 17, 4:00 PM)
Average98 °F14%29.80 "Hg
* Reported Midnight between May 13 and May 14 — Midnight between May 28 and May 29, Teseney, Weather by CustomWeather, © 2015

Note: Actual official high and low records may vary slightly from our data, if they occured in-between our weather recording intervals... More about our weather records

Advertising

Teseney weather history for previous 24 hours

 ConditionsComfort  
Time TempWeatherWind HumidityBarometerVisibility
12:00 AM
Fri, May 29
93 °FClear.8 mph32%29.80 "Hg10 mi
11:30 PM
Thu, May 28
N/AClear.9 mphN/A29.80 "Hg10 mi
10:30 PMN/A7 mphN/A29.77 "Hg3 mi
10:00 PM99 °FClear.5 mph24%29.77 "Hg10 mi
9:30 PMN/AClear.6 mphN/A29.77 "Hg10 mi
9:00 PM100 °FClear.7 mph21%29.77 "Hg10 mi
8:30 PMN/AClear.5 mphN/A29.74 "Hg10 mi
8:00 PM100 °FClear.No wind21%29.74 "Hg10 mi
7:30 PMN/AClear.No windN/A29.74 "Hg10 mi
7:00 PM102 °FSunny.No wind18%29.80 "Hg10 mi
6:30 PMN/ASunny.3 mphN/A29.74 "Hg10 mi
6:00 PM104 °FSunny.5 mph17%29.74 "Hg10 mi
5:30 PMN/ASunny.5 mphN/A29.74 "Hg10 mi
5:00 PM104 °FSunny.6 mph17%29.74 "Hg10 mi
4:30 PMN/ASunny.6 mphN/A29.74 "Hg10 mi
4:00 PM104 °FSunny.10 mph20%29.77 "Hg10 mi
3:30 PMN/ASunny.7 mphN/A29.77 "Hg10 mi
3:00 PM102 °FSunny.7 mph23%29.80 "Hg10 mi
2:30 PMN/ASunny.9 mphN/A29.83 "Hg10 mi
2:00 PM100 °FSunny.8 mph24%29.83 "Hg10 mi
1:30 PMN/ASunny.10 mphN/A29.86 "Hg10 mi
1:00 PM99 °FSunny.13 mph25%29.86 "Hg10 mi
12:30 PMN/ASunny.10 mphN/A29.86 "Hg10 mi
12:00 PM97 °FSunny.13 mph27%29.89 "Hg10 mi
11:30 AMN/ASunny.16 mphN/A29.89 "Hg10 mi
11:00 AM95 °FSunny.15 mph32%29.89 "Hg10 mi
10:30 AMN/ASunny.15 mphN/A29.89 "Hg10 mi
10:00 AM90 °FSunny.13 mph41%29.92 "Hg10 mi
9:30 AMN/ASunny.13 mphN/A29.92 "Hg10 mi
9:00 AM88 °FSunny.15 mph43%29.92 "Hg10 mi
8:30 AMN/ASunny.14 mphN/A29.92 "Hg10 mi
8:00 AM84 °FSunny.13 mph48%29.89 "Hg10 mi
7:30 AMN/ASunny.12 mphN/A29.89 "Hg10 mi
7:00 AM84 °FSunny.9 mph48%29.86 "Hg10 mi
6:30 AMN/ASunny.9 mphN/A29.86 "Hg10 mi
6:00 AM86 °FClear.12 mph43%29.83 "Hg10 mi
5:30 AMN/AClear.12 mphN/A29.83 "Hg10 mi
5:00 AM86 °FClear.12 mph46%29.83 "Hg10 mi
4:30 AMN/AClear.12 mphN/A29.80 "Hg10 mi
4:00 AM88 °FClear.12 mph43%29.80 "Hg10 mi
3:30 AMN/AClear.12 mphN/A29.80 "Hg10 mi
3:00 AM88 °FClear.15 mph43%29.80 "Hg10 mi
2:30 AMN/AClear.18 mphN/A29.80 "Hg10 mi
2:00 AM88 °FPassing clouds.20 mph38%29.80 "HgN/A
1:30 AMN/APassing clouds.17 mphN/A29.83 "HgN/A
1:00 AM90 °FPassing clouds.17 mph36%29.86 "HgN/A
Weather by CustomWeather, © 2015

See weather overviewHow to use our weather pages